Weather History for Rugby, ND

Change the Weather History Date:

Wednesday, April 10, 2013

  Actual Average Record
Temperature  
Mean Temperature 17 °F -  
Max Temperature 28 °F 50 °F 85 °F (1977)
Min Temperature 6 °F 28 °F 6 °F (2013)
Degree Days  
Heating Degree Days 48    
Moisture  
Dew Point 13 °F    
Average Humidity 83    
Maximum Humidity 100    
Minimum Humidity 59    
Precipitation  
Precipitation 0.00 in - - ()
Sea Level Pressure  
Sea Level Pressure 30.24 in    
Wind  
Wind Speed 5 mph (NNE)    
Max Wind Speed 13 mph    
Max Gust Speed -    
Visibility 9 miles    
Events Fog    
Averages and records for this station are not official NWS values.
T = Trace of Precipitation, MM = Missing Value Source: NWS Daily Summary

Daily Weather History Graph

Daily Weather History Graph

Search for Another Location

Airport:

Trip Planner

Search our weather history database for the weather conditions in past years. The results will help you decide how hot, cold, wet, or windy it might be!

Date:

Astronomy

Apr. 10, 2013 Rise Set
Actual Time 6:59 AM CDT 8:24 PM CDT
Civil Twilight 6:26 AM CDT 8:56 PM CDT
Nautical Twilight 5:47 AM CDT 9:36 PM CDT
Astronomical Twilight 5:05 AM CDT 10:19 PM CDT
Moon 6:53 AM CDT (4/10) 9:07 PM CDT (4/10)
Length of Visible Light 14h 29m
Length of Day
13h 25m
Waxing Crescent, 0% of the Moon is Illuminated
Apr 10
Waxing Crescent
Apr 18
First Quarter
Apr 25
Full
May 2
Last Quarter
May 9
New

Hourly Weather History & Observations

Time (CDT) Temp. Windchill Dew Point Humidity Pressure Visibility Wind Dir Wind Speed Gust Speed Precip Events Conditions
12:15 AM 12.2 °F 6.1 °F 10.4 °F 92% 30.35 in 10.0 mi WNW 3.5 mph - N/A   Clear
12:35 AM 12.2 °F 4.3 °F 10.4 °F 92% 30.35 in 7.0 mi NW 4.6 mph - N/A   Clear
12:55 AM 12.2 °F 2.9 °F 10.4 °F 92% 30.34 in 7.0 mi NW 5.8 mph - N/A   Clear
1:15 AM 12.2 °F 4.3 °F 10.4 °F 92% 30.34 in 1.8 mi NW 4.6 mph - N/A   Clear
1:35 AM 12.2 °F 6.1 °F 10.4 °F 92% 30.36 in 3.0 mi WNW 3.5 mph - N/A   Clear
1:55 AM 10.4 °F 4.0 °F 8.6 °F 92% 30.37 in 5.0 mi WSW 3.5 mph - N/A   Clear
2:15 AM 10.4 °F 2.2 °F 10.4 °F 100% 30.38 in 7.0 mi WSW 4.6 mph - N/A   Clear
2:55 AM 12.2 °F - 10.4 °F 92% 30.34 in 7.0 mi Calm Calm - N/A   Clear
3:15 AM 10.4 °F 4.0 °F 8.6 °F 92% 30.32 in 7.0 mi North 3.5 mph - N/A   Clear
3:35 AM 10.4 °F - 8.6 °F 92% 30.31 in 1.2 mi Calm Calm - N/A   Clear
3:55 AM 10.4 °F 2.2 °F 10.4 °F 100% 30.29 in 0.8 mi NNW 4.6 mph - N/A   Mist
4:15 AM 6.8 °F -4.8 °F 5.0 °F 92% 30.27 in 0.2 mi North 6.9 mph - N/A Fog Light Freezing Fog
4:35 AM 6.8 °F -6.9 °F 5.0 °F 92% 30.25 in 4.0 mi North 9.2 mph - N/A   Clear
4:55 AM 6.8 °F -6.9 °F 5.0 °F 92% 30.23 in 9.0 mi North 9.2 mph - N/A   Clear
5:15 AM 8.6 °F -7.0 °F 6.8 °F 92% 30.22 in 10.0 mi North 12.7 mph - N/A   Clear
5:35 AM 10.4 °F 4.0 °F 8.6 °F 92% 30.26 in 10.0 mi NNW 3.5 mph - N/A   Clear
5:55 AM 10.4 °F 0.8 °F 8.6 °F 92% 30.29 in 10.0 mi SW 5.8 mph - N/A   Clear
6:15 AM 8.6 °F 0.1 °F 6.8 °F 92% 30.30 in 10.0 mi WSW 4.6 mph - N/A   Clear
6:35 AM 8.6 °F 2.0 °F 6.8 °F 92% 30.30 in 10.0 mi SW 3.5 mph - N/A   Clear
6:55 AM 8.6 °F 2.0 °F 6.8 °F 92% 30.30 in 10.0 mi WSW 3.5 mph - N/A   Clear
7:15 AM 8.6 °F 2.0 °F 6.8 °F 92% 30.31 in 10.0 mi SW 3.5 mph - N/A   Clear
7:35 AM 8.6 °F - 6.8 °F 92% 30.31 in 10.0 mi Calm Calm - N/A   Clear
7:55 AM 10.4 °F - 8.6 °F 92% 30.31 in 10.0 mi Calm Calm - N/A   Clear
8:15 AM 8.6 °F - 5.0 °F 85% 30.31 in 10.0 mi Calm Calm - N/A   Clear
8:35 AM 8.6 °F - 6.8 °F 92% 30.30 in 10.0 mi Calm Calm - N/A   Clear
8:55 AM 6.8 °F -0.1 °F 5.0 °F 92% 30.29 in 10.0 mi NNE 3.5 mph - N/A   Clear
9:15 AM 8.6 °F 2.0 °F 6.8 °F 92% 30.29 in 10.0 mi NNE 3.5 mph - N/A   Clear
9:35 AM 10.4 °F - 8.6 °F 92% 30.29 in 10.0 mi Calm Calm - N/A   Clear
9:55 AM 10.4 °F - 8.6 °F 92% 30.28 in 10.0 mi Calm Calm - N/A   Clear
10:15 AM 14.0 °F 8.2 °F 12.2 °F 93% 30.29 in 9.0 mi West 3.5 mph - N/A   Clear
10:35 AM 14.0 °F 6.5 °F 10.4 °F 86% 30.29 in 9.0 mi WNW 4.6 mph - N/A   Clear
10:55 AM 14.0 °F 5.1 °F 14.0 °F 100% 30.29 in 10.0 mi WNW 5.8 mph - N/A   Clear
11:15 AM 15.8 °F 8.6 °F 15.8 °F 100% 30.30 in 10.0 mi NW 4.6 mph - N/A   Clear
11:35 AM 17.6 °F - 15.8 °F 93% 30.30 in 10.0 mi Calm Calm - N/A   Clear
12:15 PM 19.4 °F 14.3 °F 17.6 °F 93% 30.29 in 10.0 mi NW 3.5 mph - N/A   Clear
12:35 PM 23.0 °F 18.4 °F 15.8 °F 74% 30.29 in 10.0 mi NW 3.5 mph - N/A   Clear
12:55 PM 23.0 °F 18.4 °F 17.6 °F 80% 30.28 in 10.0 mi NNW 3.5 mph - N/A   Clear
1:15 PM 24.8 °F - 17.6 °F 74% 30.28 in 10.0 mi Calm Calm - N/A   Clear
1:35 PM 26.6 °F 22.6 °F 17.6 °F 69% 30.27 in 10.0 mi NNW 3.5 mph - N/A   Clear
1:55 PM 26.6 °F 21.2 °F 17.6 °F 69% 30.26 in 10.0 mi North 4.6 mph - N/A   Partly Cloudy
2:15 PM 28.4 °F 24.6 °F 17.6 °F 64% 30.25 in 10.0 mi West 3.5 mph - N/A   Partly Cloudy
2:35 PM 28.4 °F - 17.6 °F 64% 30.23 in 10.0 mi Calm Calm - N/A   Clear
2:55 PM 26.6 °F - 15.8 °F 64% 30.22 in 10.0 mi Calm Calm - N/A   Clear
3:15 PM 28.4 °F 24.6 °F 15.8 °F 59% 30.21 in 10.0 mi ENE 3.5 mph - N/A   Clear
3:35 PM 28.4 °F 24.6 °F 17.6 °F 64% 30.21 in 10.0 mi East 3.5 mph - N/A   Clear
3:55 PM 28.4 °F 22.2 °F 17.6 °F 64% 30.20 in 10.0 mi East 5.8 mph - N/A   Clear
4:15 PM 28.4 °F 22.2 °F 19.4 °F 69% 30.19 in 10.0 mi East 5.8 mph - N/A   Clear
4:35 PM 28.4 °F 20.4 °F 17.6 °F 64% 30.18 in 10.0 mi East 8.1 mph - N/A   Clear
4:55 PM 28.4 °F 21.2 °F 19.4 °F 69% 30.18 in 10.0 mi ENE 6.9 mph - N/A   Clear
5:15 PM 28.4 °F 21.2 °F 17.6 °F 64% 30.19 in 10.0 mi ENE 6.9 mph - N/A   Clear
5:35 PM 28.4 °F 22.2 °F 17.6 °F 64% 30.18 in 10.0 mi ENE 5.8 mph - N/A   Mostly Cloudy
5:55 PM 28.4 °F 23.3 °F 19.4 °F 69% 30.17 in 10.0 mi NE 4.6 mph - N/A   Scattered Clouds
6:15 PM 28.4 °F 21.2 °F 17.6 °F 64% 30.16 in 10.0 mi NNE 6.9 mph - N/A   Clear
6:35 PM 28.4 °F 19.7 °F 17.6 °F 64% 30.16 in 10.0 mi NE 9.2 mph - N/A   Clear
6:55 PM 26.6 °F 18.2 °F 19.4 °F 74% 30.15 in 10.0 mi NE 8.1 mph - N/A   Clear
7:15 PM 26.6 °F 17.5 °F 19.4 °F 74% 30.16 in 10.0 mi ENE 9.2 mph - N/A   Clear
7:35 PM 24.8 °F 16.9 °F 19.4 °F 80% 30.15 in 10.0 mi ENE 6.9 mph - N/A   Clear
7:55 PM 24.8 °F 15.3 °F 19.4 °F 80% 30.15 in 10.0 mi East 9.2 mph - N/A   Clear
8:15 PM 23.0 °F 14.7 °F 17.6 °F 80% 30.15 in 10.0 mi ENE 6.9 mph - N/A   Clear
8:35 PM 21.2 °F 13.6 °F 17.6 °F 86% 30.14 in 10.0 mi NE 5.8 mph - N/A   Clear
8:55 PM 23.0 °F 15.8 °F 17.6 °F 80% 30.13 in 10.0 mi NE 5.8 mph - N/A   Mostly Cloudy
9:15 PM 21.2 °F 8.9 °F 17.6 °F 86% 30.12 in 10.0 mi East 12.7 mph - N/A   Mostly Cloudy
9:35 PM 23.0 °F 13.1 °F 15.8 °F 74% 30.11 in 10.0 mi East 9.2 mph - N/A   Partly Cloudy
9:55 PM 21.2 °F 8.9 °F 15.8 °F 80% 30.10 in 10.0 mi East 12.7 mph - N/A   Scattered Clouds
10:15 PM 19.4 °F 9.5 °F 15.8 °F 86% 30.10 in 10.0 mi East 8.1 mph - N/A   Scattered Clouds
10:35 PM 17.6 °F 6.4 °F 14.0 °F 86% 30.10 in 10.0 mi ENE 9.2 mph - N/A   Mostly Cloudy
10:55 PM 17.6 °F 6.4 °F 14.0 °F 86% 30.09 in 10.0 mi NE 9.2 mph - N/A   Partly Cloudy
11:15 PM 17.6 °F 7.3 °F 14.0 °F 86% 30.09 in 10.0 mi ENE 8.1 mph - N/A   Mostly Cloudy
11:35 PM 19.4 °F 10.4 °F 15.8 °F 86% 30.09 in 10.0 mi ENE 6.9 mph - N/A   Overcast
11:55 PM 21.2 °F 12.6 °F 15.8 °F 80% 30.08 in 10.0 mi East 6.9 mph - N/A   Overcast